Theta_e
289 291 291 291 291 290 289 289 289 288 289 288 286 287 289 288 284 283 288 288 286 288 288 289 291 291 292 291 292 293 294 296 297 297 297 297 297 297 297 298 298 297 297 297 296 295 294 293 293 292 292 292 292 291 290 289 289 290 291 292 291 290 289 289 288 287 288 287 287 287 286 286 287 287 287 286 286 286 285 286 288 286 287 287 287 287 286
288 289 290 292 291 289 289 289 289 289 289 288 289 289 290 289 287 289 290 289 289 291 290 290 291 293 292 293 293 294 295 296 297 297 297 296 297 297 297 298 298 297 298 297 296 295 294 294 293 292 292 291 291 290 290 289 289 289 290 290 290 289 289 288 288 287 287 286 287 286 287 287 286 286 286 285 285 286 286 286 286 287 287 287 286 287 288
284 287 287 288 290 289 287 289 290 290 290 289 289 289 289 289 289 290 290 287 287 292 292 292 295 292 292 293 293 294 295 296 297 297 297 296 297 297 297 296 297 297 298 297 296 295 294 293 293 293 292 291 291 290 289 288 288 288 289 289 288 288 288 287 286 286 286 286 286 287 286 286 286 286 286 286 286 286 286 286 286 286 286 286 286 286 286
281 284 284 285 283 284 285 285 288 289 288 286 288 286 289 287 285 287 287 286 287 292 293 292 292 291 292 292 293 293 295 296 296 296 296 296 297 296 297 296 296 297 298 297 295 294 293 293 292 292 292 291 290 289 289 288 289 289 290 289 289 288 287 287 286 286 286 286 286 286 286 285 285 285 285 285 285 285 285 285 286 285 285 284 285 284 286
280 280 282 282 283 283 281 283 288 290 290 290 290 291 291 290 291 286 284 286 292 292 293 294 291 291 291 291 292 292 294 295 296 296 297 297 297 297 297 297 297 297 297 296 295 293 292 292 292 291 291 290 289 289 288 288 289 289 289 289 288 288 287 287 286 286 286 286 286 286 285 285 284 284 284 283 283 283 284 283 282 284 282 283 283 283 283
282 277 281 283 280 276 279 289 292 293 290 289 287 287 290 291 292 290 292 292 294 292 293 293 292 291 292 293 295 296 296 295 295 295 296 297 297 296 295 296 296 295 295 294 293 292 291 290 290 289 289 289 288 287 287 287 288 288 288 287 287 286 286 285 285 285 285 285 284 284 283 283 282 282 282 282 281 281 282 281 281 281 281 282 282 282 282
281 280 281 279 275 278 289 294 292 294 294 293 291 291 292 292 293 293 292 292 292 293 294 294 295 294 294 294 294 295 295 296 296 296 296 296 296 297 295 295 295 294 294 292 290 289 289 289 288 288 288 288 287 287 287 288 287 287 286 286 285 285 284 284 284 284 284 283 283 282 281 280 280 280 280 280 280 281 281 281 282 283 283 283 283 282 281
283 279 280 275 277 285 290 292 290 293 293 292 290 289 292 293 293 293 292 293 294 294 294 294 295 295 293 292 291 292 294 297 297 295 296 295 295 296 296 295 294 294 293 291 290 289 288 288 288 288 288 287 287 286 287 287 286 286 285 285 284 283 283 283 283 283 282 281 281 280 280 279 279 280 280 279 280 281 281 282 282 281 282 280 282 283 283
280 281 280 280 286 285 285 287 287 290 287 287 288 284 288 293 293 293 293 294 295 295 295 294 294 292 292 292 294 292 293 294 293 295 294 294 293 294 292 294 293 292 291 290 288 288 288 287 287 287 287 286 286 286 286 285 285 284 284 283 283 283 282 282 282 281 281 280 279 279 279 279 279 280 280 281 281 281 281 282 282 282 281 281 282 282 282
286 281 279 279 279 277 283 289 291 294 294 294 293 288 286 292 294 296 295 294 294 293 292 292 290 290 289 288 291 293 292 293 292 291 291 289 290 290 289 289 289 288 288 288 287 288 287 286 286 286 286 286 286 285 284 284 283 282 282 282 281 281 281 281 280 280 280 279 278 278 277 279 279 278 279 278 278 280 279 280 281 281 281 281 281 282 282
283 282 279 278 277 281 288 289 291 293 293 294 290 286 284 290 292 294 295 294 294 293 292 290 290 289 287 288 291 291 292 290 290 289 287 287 287 287 288 289 287 287 287 287 286 286 286 285 285 285 285 285 285 284 283 282 282 281 281 280 280 280 280 279 279 279 278 278 277 277 277 277 278 277 278 278 280 278 279 278 280 281 282 281 281 281 281
281 281 279 278 280 282 285 290 288 291 293 294 289 279 281 292 291 293 294 294 293 292 293 291 290 289 287 289 291 290 288 288 287 287 287 286 286 286 286 286 286 286 286 286 285 285 284 284 284 285 285 284 283 283 282 281 280 279 279 279 278 279 279 279 279 277 276 277 276 275 274 275 275 276 277 278 277 277 278 279 279 279 280 280 279 280 280
283 283 279 281 283 288 287 289 288 289 295 292 283 279 287 289 292 293 294 293 294 294 291 291 289 292 293 291 289 286 286 287 286 286 285 285 285 285 285 285 286 285 284 284 283 283 283 283 283 284 284 283 282 281 280 279 278 278 278 278 278 278 278 277 276 276 275 275 274 274 274 275 275 276 276 276 276 275 276 278 276 277 277 278 279 280 279
281 282 280 280 283 286 289 288 291 293 290 281 281 286 289 290 290 290 292 293 294 293 293 293 294 289 286 288 287 286 285 285 284 284 285 285 285 284 285 285 284 283 282 282 281 281 281 282 283 283 283 282 280 279 278 277 276 276 276 276 276 276 275 274 274 274 273 274 275 274 275 275 273 274 275 276 276 274 275 275 275 276 275 278 279 280 281
282 281 278 279 276 285 291 291 288 289 287 285 289 288 288 290 289 291 292 292 292 292 290 292 290 287 286 287 286 285 284 285 284 284 284 284 284 284 284 283 283 283 281 280 280 279 280 280 281 282 281 279 278 277 276 276 276 276 276 275 275 275 274 273 273 273 273 273 274 274 273 274 273 273 274 273 274 275 275 275 277 277 278 278 278 279 279
280 281 278 280 284 286 293 293 288 287 289 294 290 292 290 290 288 289 290 290 290 290 292 288 287 287 286 285 284 285 284 284 284 283 283 283 284 283 283 283 282 282 280 279 278 278 278 279 280 280 280 278 277 275 275 275 275 274 274 273 273 272 272 272 272 272 273 272 272 272 273 273 273 273 273 274 276 278 279 279 279 278 277 277 277 277 277
284 282 285 286 288 291 293 293 291 294 294 291 291 290 290 289 290 288 289 289 289 289 290 289 288 286 286 286 285 284 284 284 283 283 283 283 283 283 282 282 281 280 279 278 277 277 277 277 278 277 277 277 276 274 275 274 272 271 272 271 271 270 270 271 271 271 270 270 272 272 271 272 273 274 274 273 274 276 276 276 275 275 275 276 276 276 276
289 287 287 286 287 289 291 289 289 292 289 289 288 290 289 288 288 287 289 288 288 288 289 289 286 287 287 287 285 284 284 284 283 283 282 282 282 282 281 281 280 279 277 276 276 275 275 276 276 277 276 276 274 274 274 272 271 271 270 269 269 269 269 269 269 270 270 271 271 271 273 274 274 273 273 272 273 273 273 272 271 273 273 274 274 275 275
288 284 288 286 287 289 288 291 288 287 287 288 287 287 287 287 286 287 286 288 288 289 289 289 288 287 287 286 285 285 284 283 283 282 282 281 281 281 280 280 279 277 276 275 274 274 274 276 276 276 275 274 273 273 271 271 270 270 269 269 269 269 268 269 269 270 270 271 271 273 272 271 271 272 272 271 270 272 271 270 269 270 272 273 273 273 273
287 286 286 286 288 288 288 289 288 289 287 285 285 286 286 286 284 284 286 287 287 287 288 287 288 286 286 286 285 284 284 283 282 282 281 281 280 280 279 279 278 277 276 275 274 274 274 276 276 275 274 272 271 270 269 269 267 267 268 268 267 267 266 268 269 268 267 272 270 268 269 269 270 270 270 269 269 270 270 270 269 269 270 270 271 272 272
286 286 284 285 287 288 288 288 289 288 288 286 285 285 285 284 285 284 284 284 286 287 287 287 287 286 286 285 285 285 283 282 282 282 281 281 280 279 278 277 277 277 276 275 274 274 274 275 275 273 272 271 270 268 268 266 265 265 266 267 266 266 267 267 266 269 268 268 268 267 268 268 268 269 269 269 269 268 268 269 270 270 269 270 271 269 271
286 287 286 285 285 284 287 287 288 287 286 286 286 285 286 286 285 285 285 284 283 283 284 287 287 287 286 285 285 285 284 283 282 281 280 279 278 277 276 276 276 276 275 274 273 273 274 275 274 272 271 269 268 267 266 264 264 263 264 265 265 265 266 266 265 266 266 267 267 267 266 267 268 268 273 274 274 270 268 276 278 278 278 272 273 273 273
286 287 288 291 289 286 287 287 287 288 287 287 287 287 287 287 286 286 285 284 284 285 284 284 286 286 286 285 285 284 284 283 282 281 280 278 277 275 274 274 273 274 273 273 272 272 273 274 273 272 270 268 266 264 264 264 263 263 263 265 266 265 265 264 265 265 265 266 267 268 268 268 267 267 266 269 274 276 276 276 276 276 277 278 278 278 276
285 285 284 285 287 286 285 284 285 286 288 289 288 287 287 287 286 285 284 283 284 282 284 284 284 285 285 285 286 284 282 282 281 280 278 277 276 274 273 274 273 272 272 272 271 271 273 273 272 270 268 266 264 263 262 262 262 262 263 264 264 263 263 264 265 266 266 267 268 268 266 266 265 265 265 264 265 273 275 273 274 276 276 277 276 276 276
286 285 285 286 285 285 284 283 283 284 285 288 287 286 286 286 286 285 284 283 282 283 283 283 284 284 285 284 285 284 283 281 280 279 277 275 274 273 272 272 271 271 272 272 272 272 271 270 269 268 266 264 263 261 261 261 260 260 261 261 262 262 263 264 266 267 267 267 266 264 263 263 263 264 263 264 263 263 267 272 273 274 275 274 274 275 275
286 284 284 284 284 283 284 285 285 284 285 285 284 283 284 284 284 282 280 281 281 281 282 281 282 283 283 284 284 281 279 279 278 277 275 274 272 271 271 271 271 271 271 271 271 270 269 268 267 266 264 262 261 261 260 260 260 259 259 260 261 262 264 265 264 264 264 265 266 266 265 264 263 262 263 263 261 263 264 264 265 269 272 272 273 273 274
285 285 285 286 285 284 284 285 285 283 283 283 282 281 281 280 279 278 277 276 275 276 276 279 280 279 279 279 279 278 279 275 274 275 275 273 272 273 272 271 271 271 270 269 268 268 268 266 266 264 262 261 260 260 259 259 259 259 259 261 261 264 264 264 263 264 265 264 264 263 263 262 261 262 261 263 265 264 263 263 263 264 264 265 269 272 271
284 284 285 285 283 284 283 281 282 282 282 282 280 279 279 279 278 278 276 276 275 273 274 274 276 276 277 275 277 274 273 274 275 274 273 273 272 270 269 269 269 269 269 268 267 267 265 265 264 262 260 260 260 260 259 259 259 260 261 263 263 264 263 263 263 263 262 261 262 261 261 261 261 263 263 263 263 262 263 263 263 263 263 264 265 270 272
283 283 282 283 283 282 282 282 281 281 279 279 278 278 278 277 275 276 275 275 275 274 273 272 272 274 275 275 275 275 275 274 274 273 273 271 269 268 268 267 267 267 267 266 265 264 264 263 263 261 260 260 259 260 259 259 260 261 261 262 263 263 263 262 262 262 261 261 260 260 264 263 262 261 262 262 263 261 261 261 262 262 263 264 265 264 268
282 282 281 280 280 280 281 280 280 279 279 278 278 276 276 278 276 275 275 274 273 274 274 271 271 271 272 272 274 276 275 274 274 272 270 268 267 266 266 266 265 264 264 263 263 263 263 263 263 262 261 261 260 260 260 260 261 261 261 262 262 263 262 262 261 260 259 258 259 264 262 261 261 261 261 260 261 261 262 261 262 263 262 263 265 263 263
278 279 279 278 278 278 278 279 279 278 277 276 276 275 275 276 276 276 277 277 274 274 273 272 271 269 271 274 275 274 271 269 270 268 267 265 264 265 265 265 266 266 265 265 263 263 263 263 263 263 262 260 260 260 260 261 261 261 261 261 261 262 262 263 262 259 260 261 261 260 260 261 260 261 261 261 260 260 260 260 260 261 262 261 262 262 263
277 276 275 275 274 275 275 275 276 276 276 275 275 275 276 276 277 278 278 277 278 277 274 271 271 272 273 271 269 268 267 266 266 265 264 263 263 264 264 265 264 266 265 265 264 263 263 263 263 262 260 260 261 260 260 260 261 261 261 262 261 261 261 263 261 261 261 261 260 259 260 259 258 259 260 260 259 260 259 259 259 260 260 261 261 261 263
277 276 276 276 275 274 274 273 274 275 274 275 277 278 278 278 278 278 279 279 277 275 275 275 274 274 270 268 266 266 265 263 263 263 263 263 263 263 263 263 263 262 263 263 263 263 263 263 263 260 260 261 260 260 260 260 261 260 260 261 260 258 261 262 261 260 260 260 259 259 258 259 259 258 258 260 261 261 259 259 260 260 260 260 260 261 263
280 280 281 280 281 281 279 279 277 277 277 276 277 277 276 277 278 279 279 278 277 276 276 276 275 271 268 268 267 265 264 264 263 264 263 263 263 262 262 263 261 260 261 262 263 263 263 262 260 259 260 260 260 260 259 259 258 258 257 257 257 258 259 260 261 259 258 259 259 262 260 260 258 258 260 260 260 259 260 260 260 260 259 259 260 261 263
282 282 282 282 282 282 281 281 279 278 278 276 276 276 277 278 278 278 279 278 277 279 278 274 271 269 268 267 266 265 265 267 269 269 266 264 262 262 262 260 259 259 260 261 262 262 262 260 260 260 259 259 259 259 259 258 256 255 254 255 257 257 257 259 258 258 258 258 258 257 257 257 258 262 261 260 258 259 259 259 259 259 259 259 260 260 261
279 280 279 279 279 279 279 280 281 280 280 280 280 279 278 278 277 277 276 277 278 277 273 271 269 267 266 266 266 265 266 267 268 266 265 263 262 261 260 259 259 259 260 260 261 260 259 259 258 258 258 257 257 256 256 256 254 254 255 255 257 257 258 258 258 258 259 257 257 258 257 260 260 260 259 258 258 258 257 257 258 258 259 259 259 259 260
277 280 280 279 279 279 280 281 281 280 280 280 280 278 278 277 277 277 277 276 274 274 271 268 266 266 267 267 268 267 266 266 266 266 265 262 261 260 259 259 259 259 260 258 260 259 258 258 258 259 259 258 257 255 257 258 255 255 256 255 255 256 256 256 257 256 256 257 258 257 259 259 257 256 259 257 257 257 258 257 258 258 258 259 259 259 259
277 277 278 279 279 278 278 279 277 276 276 276 276 276 276 276 275 274 275 274 272 270 269 269 269 269 267 264 264 265 265 264 263 262 261 260 260 259 259 258 258 259 259 260 260 258 258 258 259 258 258 258 257 256 257 258 258 255 254 255 255 256 256 256 256 257 257 255 258 256 256 256 255 254 255 255 255 256 257 258 258 258 258 258 258 258 259
276 275 273 273 273 273 274 276 273 271 270 271 272 272 269 269 269 269 270 272 269 267 267 267 265 264 263 263 264 264 263 263 262 261 261 259 259 260 260 260 260 261 260 260 258 257 258 258 257 256 256 256 256 256 257 258 259 254 254 255 254 255 256 256 256 257 257 257 256 255 255 255 256 255 255 255 255 257 259 258 258 258 257 257 257 257 257
269 268 268 268 268 268 269 270 270 268 264 264 265 268 265 265 267 268 269 269 264 263 265 264 264 266 264 264 264 264 263 262 261 261 259 259 258 258 257 255 253 252 256 258 257 257 257 258 256 255 255 254 254 254 256 258 258 256 255 254 255 256 256 257 257 256 256 255 256 259 256 256 256 256 256 256 255 256 255 256 256 256 256 256 256 256 257
264 264 264 264 264 264 264 266 268 266 262 262 261 261 260 261 263 264 267 268 264 262 263 265 266 266 266 265 265 263 261 260 260 260 259 259 258 258 258 259 257 255 257 258 257 257 257 257 256 256 256 255 255 256 256 258 258 256 256 256 256 256 256 257 257 257 256 256 256 255 255 255 255 255 255 254 254 254 254 255 255 255 255 255 256 256 256
261 261 261 261 262 263 263 262 261 263 264 260 258 256 256 257 260 263 265 262 262 260 262 262 263 265 264 262 261 260 259 259 259 259 259 259 259 260 260 261 258 256 258 257 257 257 257 257 257 257 257 256 256 257 258 258 257 257 257 257 256 256 256 256 257 256 256 256 256 254 255 254 253 253 254 254 253 253 253 254 254 254 254 254 255 256 256
258 257 258 259 259 258 257 258 259 259 259 258 256 254 255 256 257 258 259 259 259 259 259 260 260 260 260 260 259 258 257 257 257 257 257 259 258 257 260 260 257 256 257 257 256 256 256 256 257 257 257 257 257 258 258 257 257 257 256 256 256 256 256 256 256 255 255 254 254 254 253 253 252 251 252 252 252 252 252 252 253 254 254 254 254 255 256
254 253 254 255 256 256 255 255 255 254 255 256 252 251 253 253 254 255 256 257 257 257 257 257 257 257 257 258 259 258 257 256 255 256 255 256 257 256 256 257 257 256 256 256 256 256 256 256 255 256 257 257 257 257 257 256 257 256 256 256 255 255 255 255 255 255 255 255 255 254 254 254 253 252 251 252 252 251 252 253 252 253 253 254 254 255 255
254 253 253 253 252 252 253 253 253 254 254 251 250 251 251 250 251 251 253 254 255 255 256 256 256 256 256 256 257 257 256 256 256 256 255 255 256 257 257 255 255 256 256 257 257 257 257 256 256 257 257 257 257 257 256 256 256 255 255 255 255 254 254 255 255 254 255 254 254 254 254 253 253 253 252 252 254 253 253 253 253 253 254 254 254 255 255
253 252 251 253 252 251 251 251 251 251 250 252 253 253 252 250 251 251 251 252 253 253 254 255 254 254 254 254 254 254 254 255 255 254 253 254 255 255 255 255 255 256 256 257 257 257 257 257 256 256 256 256 256 256 256 256 256 255 255 254 254 254 254 254 254 254 254 254 254 253 253 253 252 252 252 252 251 252 253 254 254 254 253 254 254 254 255
251 251 250 250 250 250 250 250 252 253 254 255 255 255 253 252 252 252 251 250 250 250 251 251 251 251 252 253 255 255 254 254 253 251 251 252 254 255 256 256 255 255 255 256 256 256 256 256 255 256 256 256 256 255 255 255 255 255 254 254 253 253 253 253 253 253 253 253 254 254 255 254 252 251 252 253 252 252 252 252 253 253 253 254 254 255 255
250 249 249 249 249 249 250 250 251 251 253 254 255 254 253 253 252 252 252 252 252 252 252 252 251 251 251 252 252 253 254 255 253 254 254 253 255 256 255 255 254 254 255 255 255 255 255 255 255 255 255 255 255 254 254 254 254 253 253 253 252 252 252 252 252 252 253 253 253 252 252 251 251 251 251 251 252 251 251 252 253 253 253 253 253 254 254
248 248 249 249 249 249 250 250 251 252 252 254 253 254 254 252 253 253 253 253 253 252 252 251 252 252 252 252 253 253 252 253 256 255 255 254 255 255 254 254 254 254 254 254 254 254 254 254 254 254 254 254 254 254 254 253 253 253 253 252 252 252 252 252 252 252 252 252 252 252 252 252 251 250 251 251 251 251 252 252 253 253 253 253 253 254 254
248 248 248 248 248 249 249 250 250 251 252 252 251 253 253 254 252 253 254 253 253 253 253 252 253 253 253 253 252 251 253 253 254 254 254 254 254 254 254 253 253 253 254 254 253 254 254 253 253 253 253 253 253 253 253 253 252 252 252 252 252 252 252 253 253 253 252 252 251 252 252 252 251 251 252 251 251 251 252 252 252 254 255 254 254 253 253
248 249 248 249 249 248 247 248 249 250 251 252 252 253 253 254 253 254 254 254 254 253 252 253 253 252 252 252 252 252 252 252 253 253 253 253 253 252 253 252 252 252 252 253 253 253 253 253 252 252 252 252 251 251 252 252 252 252 252 252 251 251 251 252 252 251 251 252 251 251 251 251 250 250 249 250 251 251 252 252 252 252 252 252 252 252 252
246 247 247 247 246 246 246 246 247 248 250 251 252 254 254 254 253 253 253 254 254 253 254 252 252 253 253 252 252 252 252 252 252 252 252 252 252 252 252 252 252 252 252 252 252 252 252 252 251 251 251 250 250 250 251 251 251 251 251 251 251 251 251 251 251 251 251 251 251 251 251 250 249 250 250 250 250 251 251 251 251 251 251 251 251 251 251
Wind_Speed
8 4 5 8 9 11 11 15 16 16 13 9 10 11 14 7 8 13 13 9 9 9 5 8 8 7 8 9 8 7 7 5 5 6 7 7 6 6 6 7 7 8 8 7 7 7 7 6 6 5 5 6 5 5 4 4 4 4 5 7 7 7 6 6 4 4 4 4 4 4 4 4 5 5 5 4 4 3 3 4 3 3 3 4 4 4 4
8 4 4 5 12 8 8 9 11 11 12 13 15 16 16 14 9 11 14 6 12 7 5 7 7 7 6 3 3 5 7 7 7 7 7 8 8 8 9 9 8 7 7 8 8 7 7 7 7 6 6 5 5 5 5 4 4 4 6 7 8 7 6 5 4 4 4 5 5 4 5 6 6 5 5 4 4 4 5 4 5 4 5 5 5 5 5
5 2 1 1 2 6 9 8 9 10 12 13 15 15 16 13 12 13 10 6 9 4 6 5 0 4 5 5 6 7 6 6 7 8 8 8 9 9 7 6 7 7 8 8 8 8 7 7 7 7 6 6 6 6 5 4 4 4 6 8 7 7 6 4 4 4 4 5 5 7 5 5 5 6 5 5 5 5 5 5 5 5 5 5 5 4 5
3 0 1 1 2 2 1 3 5 8 12 12 12 12 12 9 10 11 9 10 13 10 5 3 4 5 7 8 7 5 5 7 8 8 8 9 9 8 8 8 7 8 9 10 10 9 8 7 7 7 8 6 6 6 4 4 4 5 8 8 8 7 6 5 5 4 4 5 7 6 7 7 6 5 5 6 6 5 5 6 5 4 5 4 4 4 4
4 1 1 3 2 1 4 8 11 15 14 14 13 13 12 12 14 13 11 16 16 7 7 9 5 6 7 6 6 5 5 8 10 11 10 11 9 8 7 8 10 11 11 9 10 9 8 8 8 7 8 8 7 6 5 4 4 7 8 8 8 8 6 5 5 5 5 7 7 7 6 6 5 5 5 5 6 5 5 4 4 4 4 4 4 4 3
0 4 1 3 4 9 13 12 13 13 13 13 9 9 13 14 11 11 14 16 13 5 7 8 7 8 8 9 9 9 11 10 8 8 9 9 9 6 5 7 8 6 6 8 8 8 8 7 7 6 7 8 7 5 5 4 7 8 9 8 8 7 6 5 4 5 6 6 6 5 4 4 4 4 4 4 4 3 3 4 4 4 4 4 4 4 4
2 2 1 3 9 13 12 1 6 15 14 12 16 17 18 17 16 16 14 11 9 6 8 10 10 10 7 7 8 6 6 8 9 10 9 9 7 7 7 7 8 8 8 9 9 9 8 9 8 9 8 7 7 5 4 8 8 9 8 8 7 6 6 4 5 5 6 5 5 4 4 4 3 4 4 3 4 3 3 4 4 5 5 6 5 5 5
4 2 2 8 10 4 3 1 3 4 8 9 8 13 14 13 14 14 15 15 12 7 7 7 8 8 6 5 5 7 7 9 10 8 8 7 8 9 9 11 10 11 11 13 12 10 7 9 7 7 9 7 7 7 6 9 8 8 7 7 6 5 5 4 5 5 5 4 4 3 3 3 3 4 3 3 4 4 4 4 4 4 5 4 5 6 6
9 8 9 12 7 15 4 3 4 9 9 7 11 11 14 11 8 11 14 17 16 11 7 4 2 2 2 3 8 6 7 5 4 7 7 7 7 6 5 8 8 6 8 10 10 10 8 8 9 8 7 7 8 8 8 8 8 7 7 7 6 5 5 4 4 4 4 3 3 3 2 3 4 4 5 5 5 4 5 5 5 5 4 4 5 6 6
9 8 6 3 6 14 18 17 1 4 4 7 6 7 12 5 12 14 15 16 14 8 5 5 4 5 5 6 10 8 4 5 7 5 6 5 6 6 8 7 8 9 8 9 8 10 10 8 7 7 7 8 9 9 9 7 8 7 7 7 5 4 4 4 4 3 3 3 3 3 3 4 4 4 4 3 3 3 4 5 5 5 5 5 5 5 5
8 7 9 9 11 17 18 5 7 8 5 9 7 3 14 10 13 13 13 14 13 8 8 6 7 7 7 11 11 5 6 3 5 8 4 6 5 5 6 10 11 9 9 10 10 9 10 10 7 7 8 9 10 10 8 7 7 8 6 5 4 4 4 4 3 3 3 3 3 3 4 3 3 4 4 3 4 3 4 4 5 5 5 5 5 5 5
6 9 10 11 5 11 5 7 5 10 8 11 8 7 15 15 8 9 11 14 11 7 10 11 11 11 9 12 10 1 3 6 3 5 8 7 7 7 7 6 8 10 10 12 10 9 9 8 7 8 8 9 10 10 8 6 8 7 5 4 3 3 4 4 3 3 3 4 3 4 3 4 3 3 3 3 4 3 4 4 4 4 4 5 5 5 5
8 9 6 4 7 6 3 8 6 8 13 12 10 17 14 1 14 13 13 10 11 10 10 12 9 12 7 4 5 6 6 9 7 6 5 6 6 9 8 9 9 10 8 9 10 8 6 6 7 7 8 10 10 8 7 8 7 4 3 3 3 3 4 4 4 3 3 4 4 4 3 3 3 3 3 4 4 4 4 4 3 4 4 4 4 5 4
11 8 9 9 6 6 7 1 10 12 9 8 17 5 0 4 2 4 6 12 11 8 11 11 8 4 5 7 5 7 6 7 7 7 8 9 8 6 6 8 9 10 10 10 10 8 5 6 6 7 9 11 9 8 8 7 4 3 3 3 3 3 3 3 3 3 3 3 3 2 3 2 3 4 4 4 4 4 4 3 4 4 5 5 6 6 5
3 2 4 4 13 6 10 11 2 3 10 5 4 3 1 1 2 5 1 3 3 7 5 6 6 8 6 7 7 6 7 9 9 8 9 9 10 10 9 9 6 10 11 10 9 7 5 5 5 6 10 11 9 7 8 5 3 3 3 3 3 3 3 3 2 2 2 2 3 2 2 3 2 3 3 3 4 3 3 4 4 4 5 7 7 8 8
10 11 11 10 4 3 12 16 11 5 4 1 4 7 3 1 2 3 4 2 1 4 9 8 6 7 9 5 7 7 6 7 7 6 6 7 7 7 5 7 8 9 10 9 9 7 5 5 5 5 9 11 8 8 6 4 3 3 3 3 3 3 2 1 1 1 1 2 2 1 1 3 3 2 3 3 3 3 4 4 5 6 7 7 7 7 9
7 7 9 3 6 13 8 4 3 12 5 2 1 2 5 5 1 0 5 3 2 5 8 8 9 6 4 7 7 9 8 8 8 8 8 8 8 8 9 8 8 7 11 11 10 8 6 6 5 5 5 11 10 9 5 3 2 3 2 3 2 2 1 1 0 1 2 2 0 1 2 1 2 2 3 3 3 4 3 5 5 6 6 5 6 6 7
5 3 2 3 0 1 1 2 1 5 4 3 3 6 6 1 2 2 5 5 5 5 7 10 2 5 8 9 6 7 8 8 6 7 7 7 6 7 8 8 8 8 9 9 10 10 7 4 5 5 5 6 10 7 5 3 3 2 3 3 2 2 1 0 0 0 1 1 1 2 1 2 2 3 2 2 2 4 5 5 4 5 5 5 6 6 7
9 9 6 5 2 2 1 1 3 4 4 2 1 5 5 4 5 5 4 6 6 7 6 8 8 7 7 7 6 7 8 8 8 9 9 8 8 10 10 8 10 10 9 10 9 9 9 5 5 6 7 6 6 5 4 3 2 2 2 2 2 1 1 0 1 1 2 2 3 2 2 2 2 1 2 2 3 3 4 4 3 3 4 5 6 7 7
11 5 1 3 5 6 4 3 3 2 3 4 4 3 4 6 4 4 4 5 5 5 6 7 10 9 7 10 9 8 8 9 9 9 9 10 8 5 6 8 8 8 9 10 10 9 9 7 6 6 6 6 6 5 4 3 2 2 2 2 2 1 1 1 1 2 3 4 3 2 3 3 3 3 3 2 3 4 3 5 4 4 3 4 6 6 7
2 2 1 2 6 1 0 1 0 2 7 6 5 4 5 5 6 5 6 4 3 4 6 6 8 9 7 7 9 9 7 7 8 9 9 8 8 9 9 7 8 9 9 10 9 9 8 7 7 7 7 6 5 5 4 3 2 2 2 1 1 1 1 2 2 2 1 1 2 3 3 3 3 4 4 5 3 2 4 2 2 3 3 4 4 3 4
6 10 6 6 4 3 5 5 3 2 4 7 6 4 5 5 6 4 6 4 4 4 4 7 7 9 7 6 7 8 8 9 8 9 9 8 9 7 5 6 6 6 7 9 10 9 8 7 7 8 7 6 5 4 3 2 2 2 2 2 2 2 3 3 2 1 1 1 2 2 3 3 4 4 5 7 4 1 2 5 7 7 7 3 5 5 5
8 1 5 9 5 3 1 0 2 4 4 7 7 4 4 3 3 5 7 5 3 2 2 2 7 6 9 8 7 6 6 7 7 9 11 12 10 9 8 9 7 8 7 7 8 8 8 7 7 7 7 6 5 3 2 1 1 1 1 3 4 3 3 1 1 0 0 1 1 2 3 4 4 5 5 6 6 4 4 5 7 8 8 9 10 10 8
3 1 2 1 3 4 3 2 3 3 1 8 7 4 4 4 4 3 4 4 7 3 1 1 2 6 5 6 9 8 5 6 8 8 6 6 7 8 8 8 9 10 9 9 10 10 8 7 8 8 7 6 5 3 2 1 1 1 0 3 5 3 3 0 1 0 0 1 2 2 3 3 4 4 6 4 3 3 6 7 8 8 7 10 12 12 13
3 1 3 6 9 6 3 3 3 3 3 5 7 5 4 4 2 3 5 4 3 6 5 4 1 2 7 6 7 8 9 7 7 8 8 8 8 9 8 8 10 10 10 8 7 7 8 8 8 7 7 6 5 3 2 2 2 3 3 3 4 3 1 1 1 1 1 1 1 1 2 4 4 4 4 6 4 1 1 6 6 5 8 11 12 13 14
9 5 5 4 5 4 1 4 6 5 5 4 5 3 3 4 3 5 4 4 4 3 4 4 4 0 4 7 5 5 5 7 8 9 9 9 8 7 10 11 10 7 7 7 7 8 8 8 8 7 7 6 5 4 3 3 3 4 3 3 2 1 1 1 0 0 1 0 1 2 3 2 2 2 3 3 3 6 6 2 1 3 6 10 13 15 14
5 6 6 8 7 5 6 5 3 1 3 5 7 6 4 4 5 5 3 4 3 3 3 2 3 2 2 3 5 4 8 6 5 8 8 9 12 12 8 6 8 8 8 8 7 8 9 9 8 8 8 6 4 4 4 4 4 4 4 3 2 2 3 1 1 1 0 1 2 2 1 1 1 2 2 3 3 3 4 7 8 8 6 5 8 14 13
5 1 1 5 3 3 2 2 5 3 4 3 3 4 3 3 4 3 3 2 1 2 2 1 4 5 4 4 7 5 6 8 12 9 9 11 7 6 7 7 7 8 8 8 8 8 8 7 8 8 7 6 6 5 4 4 4 4 4 4 3 3 2 2 0 1 1 2 1 1 0 1 1 1 2 2 3 3 3 3 4 6 6 5 5 9 15
4 4 3 5 6 6 5 4 4 3 3 3 4 3 3 2 1 1 1 2 1 1 1 1 0 1 4 5 5 8 8 8 9 11 10 6 6 7 7 8 7 6 7 7 7 7 8 8 8 8 7 6 5 4 4 4 4 4 4 4 3 3 3 2 2 1 0 0 0 1 0 0 1 2 3 2 3 1 4 3 4 4 5 7 7 5 5
5 4 6 5 6 6 6 2 2 2 3 3 3 1 1 2 2 4 4 3 3 4 4 2 2 3 1 4 6 8 11 11 10 5 5 7 7 8 8 8 8 5 4 5 8 9 9 8 9 8 7 7 6 5 5 4 4 4 4 3 3 3 3 3 2 1 2 2 2 1 0 1 2 2 1 2 1 1 3 3 3 4 6 6 6 7 8
4 3 6 5 5 3 3 3 2 4 4 3 3 2 1 1 2 4 5 4 3 5 4 5 4 3 4 8 8 5 2 3 4 5 6 6 7 7 9 11 14 14 14 13 10 10 9 8 7 7 7 7 7 6 6 5 5 4 4 4 3 5 6 6 4 2 1 0 1 0 1 1 2 2 3 2 1 1 1 2 3 4 5 5 5 6 7
6 5 6 3 2 1 0 1 1 2 2 3 2 4 5 5 7 9 7 5 7 7 5 4 5 9 9 5 3 4 4 4 5 6 6 6 7 8 8 8 5 2 4 7 9 9 8 8 8 7 8 6 7 7 6 5 5 5 4 4 4 4 5 6 3 3 3 2 1 0 4 2 2 1 0 1 1 1 1 2 3 3 3 5 5 6 6
4 1 1 0 1 1 3 3 3 5 5 5 8 7 6 6 6 6 6 6 5 4 5 8 8 7 4 4 4 4 4 4 4 5 6 9 9 9 8 6 4 2 4 6 7 7 8 9 8 7 7 7 7 7 6 5 3 4 4 4 4 3 3 4 5 2 1 2 2 3 4 2 2 2 2 2 1 1 1 2 3 3 3 5 5 6 6
6 7 7 6 7 8 7 8 6 7 6 6 6 6 5 6 7 8 7 5 5 6 6 9 7 4 6 7 7 6 7 6 5 9 12 11 9 8 7 6 4 3 4 5 7 6 5 6 7 6 8 9 7 7 6 5 3 5 4 5 3 2 3 3 3 3 2 3 5 4 2 3 2 2 3 2 0 1 2 2 4 4 4 4 5 5 8
7 7 6 6 6 7 6 6 6 7 7 7 7 7 8 8 7 8 9 6 7 10 7 3 5 7 7 7 7 9 10 13 14 13 11 10 10 10 8 8 6 5 5 4 5 4 6 7 7 7 8 8 8 7 6 5 4 5 4 5 2 1 1 1 2 2 3 3 2 1 2 2 2 1 1 1 1 3 2 4 3 4 3 5 5 4 6
5 5 4 4 4 5 5 6 6 6 7 7 8 8 8 9 8 7 8 9 9 6 3 5 5 7 7 8 9 11 14 14 8 5 7 9 8 7 9 10 10 9 8 5 4 5 7 7 8 10 7 6 6 5 6 5 4 5 3 4 3 3 3 2 3 1 3 3 3 4 2 3 1 2 3 3 2 2 2 2 3 3 4 5 5 5 5
5 6 6 5 5 5 5 6 6 5 5 6 5 5 6 6 7 9 7 6 5 5 5 6 6 7 11 12 11 8 7 7 7 6 7 8 8 9 9 9 9 13 10 11 9 9 7 7 11 14 8 6 6 6 7 9 5 5 3 4 3 2 3 3 3 4 4 3 4 3 4 4 2 3 5 2 2 3 2 2 4 4 3 4 4 5 6
5 5 6 4 4 4 5 4 4 4 4 8 5 3 3 4 4 4 5 6 5 4 5 7 9 9 5 4 5 7 8 6 6 6 8 10 10 10 8 11 12 10 14 16 9 12 7 10 14 9 6 7 7 7 7 11 7 6 4 5 4 4 5 4 4 4 4 3 4 2 2 3 4 4 4 2 2 2 4 3 4 3 4 4 4 5 6
4 5 7 7 5 5 5 5 4 4 4 4 5 5 4 5 5 5 5 6 3 2 4 5 3 3 4 5 7 7 7 7 6 7 8 10 10 13 12 10 9 6 2 4 12 11 9 10 9 7 7 7 7 7 8 10 9 5 3 3 4 3 3 4 3 5 5 5 2 3 3 4 3 3 4 4 3 3 4 4 3 5 4 5 4 5 5
4 6 5 6 5 5 6 6 4 3 2 1 1 5 3 4 5 5 6 6 3 2 4 3 4 7 7 8 8 8 7 6 7 8 9 9 8 8 3 2 5 2 3 9 8 7 9 12 9 7 6 7 7 6 6 8 7 5 4 5 5 5 4 5 3 3 4 3 4 5 5 5 4 5 5 4 2 3 4 4 3 5 4 5 5 5 6
4 4 5 5 4 4 4 5 6 4 3 4 2 3 1 2 4 4 7 6 4 3 5 6 7 8 9 9 9 5 5 7 8 10 10 10 8 7 12 12 7 7 7 6 7 7 10 8 7 7 6 6 6 6 5 8 6 5 5 5 5 6 5 5 5 5 5 5 6 6 6 5 4 4 4 2 3 2 3 3 4 4 4 5 5 5 5
3 3 3 3 4 4 5 5 6 8 6 4 4 4 4 3 4 6 5 3 2 3 4 6 7 6 4 3 4 4 6 7 8 9 13 18 16 7 8 6 8 7 8 8 8 8 7 6 6 5 6 6 6 9 8 6 5 5 5 5 5 5 5 5 5 5 5 5 6 6 6 5 4 4 4 4 2 3 3 3 4 4 5 5 5 5 6
2 2 2 2 2 2 4 4 5 6 8 7 5 5 5 4 4 5 5 4 3 3 3 4 3 2 1 4 5 7 6 6 7 7 7 4 2 2 4 3 7 8 10 6 7 6 6 4 3 3 5 6 6 11 10 5 5 5 4 4 5 5 4 5 5 5 5 6 6 6 6 6 6 5 4 4 5 4 3 4 5 6 5 5 5 6 6
3 3 3 3 3 1 1 2 3 4 5 6 3 3 4 4 3 4 4 4 4 3 3 4 4 4 4 4 6 6 6 7 7 6 7 5 2 2 3 6 7 9 11 7 7 6 6 6 5 6 8 9 10 11 6 4 5 4 5 5 5 5 4 5 5 5 6 6 6 6 6 7 6 6 5 5 5 5 4 5 5 5 5 5 5 6 7
2 3 4 5 5 3 3 2 2 4 4 2 2 3 3 3 3 3 2 2 3 3 2 3 4 4 4 4 5 3 4 5 7 8 9 8 8 7 5 7 8 7 7 7 5 5 5 6 7 10 9 9 9 10 5 4 4 4 4 5 4 5 5 5 5 5 6 6 6 6 7 6 6 5 6 6 6 6 6 5 5 5 5 5 5 7 7
2 3 4 5 4 4 3 1 2 0 1 2 3 2 1 2 3 3 3 1 0 0 0 1 2 3 4 4 3 5 5 5 3 1 0 1 2 2 7 7 6 5 8 9 4 4 4 8 10 10 9 10 9 6 4 4 4 4 4 5 5 5 5 5 5 5 5 6 6 6 6 6 6 6 6 6 6 6 6 6 6 4 4 5 6 7 8
1 2 3 3 3 4 3 2 1 1 2 2 4 3 2 3 3 3 4 4 4 3 3 3 3 2 2 3 4 6 5 5 2 1 3 2 2 6 9 9 8 9 6 4 4 4 4 6 7 9 9 9 8 4 3 3 4 4 5 5 5 5 5 5 5 6 6 6 7 7 6 7 6 6 7 6 6 6 4 4 5 5 5 7 6 8 9
1 1 3 4 4 6 2 2 3 4 3 3 2 2 1 3 4 3 4 4 5 5 5 4 4 4 4 5 5 4 1 5 6 3 4 5 3 5 5 5 5 7 7 6 5 5 9 8 8 9 9 8 5 3 4 4 4 4 5 5 5 5 5 5 5 6 6 6 6 6 6 7 6 6 6 7 6 6 4 4 5 5 5 6 7 7 7
0 1 2 1 1 4 3 2 3 4 4 2 2 1 2 3 3 3 3 4 5 4 4 4 4 4 4 5 4 3 4 5 1 4 3 6 5 4 4 6 8 7 4 4 4 3 6 7 7 7 7 6 3 4 4 4 4 5 5 5 5 6 6 6 6 5 5 6 6 6 6 7 6 6 7 7 6 5 6 5 5 5 6 6 7 8 7
1 1 0 1 0 0 2 2 2 4 1 2 1 1 1 1 2 1 2 2 2 3 2 2 2 2 3 3 3 3 3 4 5 6 6 4 5 4 4 4 3 4 4 4 4 3 5 8 6 6 5 3 3 3 4 4 5 5 5 6 6 5 6 7 5 7 6 6 6 6 6 6 7 7 8 6 5 4 4 5 5 7 9 9 9 8 7
2 1 1 3 2 1 2 2 1 2 1 0 1 1 1 0 1 1 2 2 1 2 2 2 2 2 2 2 3 3 4 4 5 4 5 4 4 4 4 3 3 3 3 2 3 3 3 4 3 3 3 3 3 3 4 4 5 5 5 6 6 6 5 7 6 6 6 6 6 6 7 7 7 7 7 6 4 4 5 6 6 6 6 7 7 7 7
1 0 1 1 1 1 1 2 3 2 1 0 1 2 1 1 3 2 1 1 2 2 2 4 2 2 3 2 3 3 3 4 3 4 4 4 4 3 3 3 3 2 2 2 3 3 2 2 3 4 4 3 4 4 4 6 6 6 6 6 5 6 7 7 6 6 6 6 7 7 7 7 7 7 6 5 4 5 5 6 6 6 7 7 6 7 7
Wind_Direction
224 215 207 178 184 196 201 204 203 201 196 187 191 217 227 194 187 223 231 205 222 236 183 211 213 192 199 200 200 184 170 156 144 143 154 167 176 174 170 176 167 161 161 151 141 134 134 126 123 122 114 107 96 86 84 83 77 82 97 98 93 92 92 93 100 107 97 81 71 69 68 66 57 49 46 39 31 33 34 32 18 17 12 15 6 357 352
222 199 186 189 183 203 208 207 210 202 191 196 201 217 223 215 219 224 241 203 223 220 206 209 217 197 190 174 130 125 144 171 161 158 166 180 184 186 186 182 177 170 158 150 146 140 140 138 136 132 120 111 108 108 102 94 89 86 97 97 101 98 91 89 84 80 78 74 74 72 58 52 46 42 38 27 26 25 23 20 13 5 10 4 11 360 352
240 219 34 354 245 196 209 215 203 189 188 200 209 218 228 228 241 248 257 274 272 246 198 216 157 105 91 99 139 174 175 155 157 169 181 187 195 198 194 182 175 173 161 152 145 145 149 142 143 132 122 117 111 106 108 111 105 108 103 98 92 90 84 77 71 66 67 64 65 55 48 48 39 35 25 21 23 20 16 14 8 359 3 0 356 350 345
253 352 158 175 39 41 210 247 196 183 179 197 210 216 223 205 219 237 252 262 258 243 185 186 137 141 148 169 182 169 164 170 168 182 190 196 203 198 192 186 173 172 169 161 153 151 145 140 133 129 127 124 115 115 119 122 123 107 95 92 90 83 77 68 62 60 59 62 57 49 42 34 29 25 23 27 22 14 13 10 358 358 0 348 341 341 339
227 291 329 118 99 32 294 244 211 196 197 198 206 216 217 207 204 215 214 233 237 229 159 205 205 174 190 178 177 178 188 188 181 188 195 203 205 202 186 180 185 186 175 159 146 142 141 139 130 133 129 122 125 132 130 158 124 94 87 85 84 76 67 65 57 54 55 57 56 48 39 31 24 25 31 28 20 12 7 349 360 9 339 352 338 343 356
165 325 315 137 98 219 231 223 204 186 195 196 194 213 219 221 199 215 216 228 238 199 196 195 201 193 192 190 204 188 180 181 190 200 204 206 205 193 182 183 184 178 145 134 134 137 132 123 117 118 119 121 128 138 146 129 96 86 87 78 79 77 70 65 58 57 58 57 54 46 39 34 28 33 38 26 5 344 356 0 4 345 340 341 337 342 339
237 6 27 121 213 231 236 254 155 199 207 188 200 215 214 215 212 221 236 244 246 184 192 187 202 202 206 196 186 197 179 166 178 193 203 207 197 185 177 169 169 168 148 126 123 124 129 130 125 117 113 121 126 118 121 95 83 87 83 89 83 81 75 66 60 57 60 61 57 45 37 36 38 39 37 16 10 348 5 357 357 347 342 342 334 331 329
60 42 210 226 225 236 1 272 204 200 190 203 199 242 238 222 211 211 229 237 236 213 204 207 204 205 210 212 215 191 184 173 175 185 198 201 182 183 183 168 170 161 158 152 146 140 135 127 128 126 132 136 120 112 98 93 91 88 93 90 87 82 76 66 66 62 66 64 57 49 42 36 45 34 31 18 1 340 360 349 348 347 334 337 325 319 311
192 187 198 229 342 318 276 226 234 163 188 173 188 226 247 223 207 198 221 232 233 227 216 181 165 115 104 214 260 237 158 171 169 168 180 172 174 161 156 156 157 145 133 130 131 127 128 130 131 133 131 123 117 110 98 93 93 94 91 87 83 83 79 71 67 68 70 71 66 48 38 44 37 22 12 359 352 354 358 344 338 330 311 301 291 291 290
189 182 209 218 244 245 248 229 105 173 155 166 174 189 265 211 205 207 214 227 232 218 187 153 147 111 150 237 246 237 205 186 122 84 96 82 97 108 108 93 99 107 109 108 114 122 123 120 126 128 126 124 117 108 103 99 99 94 89 84 83 84 83 78 70 67 70 66 65 39 38 32 19 2 353 345 329 340 344 321 316 298 291 286 282 277 283
172 200 203 206 213 233 244 231 193 182 159 131 105 160 253 237 196 205 205 225 228 201 163 172 141 124 190 228 233 234 202 133 122 116 89 96 100 105 120 131 124 120 119 120 120 115 117 122 129 124 123 120 112 107 105 104 99 95 86 86 83 85 81 78 68 59 64 53 45 33 30 8 6 352 335 317 299 321 308 289 281 281 281 287 289 287 276
198 189 208 220 208 249 244 166 178 162 150 113 105 227 253 249 145 181 206 217 219 194 177 159 170 169 208 231 233 158 89 103 83 123 133 118 108 97 97 90 111 117 119 115 113 120 124 130 127 122 120 112 107 108 106 105 95 90 90 86 80 71 70 66 62 42 39 50 27 22 5 348 346 326 303 308 299 300 292 276 269 282 289 289 289 291 288
205 192 235 263 262 259 181 173 162 159 142 132 172 220 243 87 152 187 205 199 205 192 168 166 186 211 212 192 133 127 114 89 74 72 84 105 115 121 117 118 116 108 105 109 116 118 118 116 114 115 116 110 107 107 108 99 91 91 83 69 63 64 68 64 55 37 33 37 16 348 337 329 319 314 305 290 290 293 285 286 289 302 305 304 304 306 307
205 199 211 232 276 235 173 290 158 150 115 193 209 231 298 142 158 218 185 194 205 184 167 187 198 140 115 113 100 98 96 109 114 108 107 102 89 85 98 107 111 108 105 104 101 89 78 89 104 114 115 111 111 111 103 96 100 81 69 63 56 58 65 54 50 27 33 10 355 331 319 330 330 307 290 287 286 285 288 309 330 331 327 329 334 327 328
237 167 212 238 248 244 120 107 11 262 179 226 176 171 352 28 182 127 96 139 157 125 163 175 133 131 113 124 122 113 120 123 128 130 129 128 131 131 124 110 111 120 116 111 102 99 79 71 87 113 116 113 113 110 104 106 91 78 68 67 54 59 65 55 33 20 6 348 324 325 333 318 296 292 298 315 311 312 342 348 347 351 348 350 348 339 332
193 196 203 216 222 96 144 141 189 192 192 225 172 130 114 353 102 111 102 49 164 151 139 135 122 130 122 99 120 112 110 120 122 118 118 121 119 112 105 117 126 118 111 109 104 89 80 73 78 104 119 118 118 112 109 100 88 67 67 48 63 61 53 44 11 354 329 308 290 302 310 298 294 283 313 323 332 349 356 347 1 5 359 353 344 342 338
195 201 224 224 179 165 193 161 170 176 184 110 196 116 132 149 114 149 100 117 86 124 130 128 137 135 162 150 154 141 151 142 142 142 144 143 139 135 133 130 122 119 127 125 116 100 85 80 75 84 102 120 120 115 123 96 89 87 78 62 73 70 45 352 351 280 316 291 270 298 294 302 337 335 347 350 7 336 6 9 20 13 344 346 342 331 332
215 260 173 166 164 188 230 22 316 151 114 70 82 124 104 45 153 136 135 148 124 116 132 123 131 143 149 141 141 130 139 137 132 126 124 121 121 121 123 124 126 124 118 117 119 115 96 85 86 83 87 107 117 127 116 99 89 93 91 90 94 106 45 316 282 287 335 337 349 302 311 345 345 329 341 344 354 347 19 20 19 4 340 343 342 340 334
160 236 194 145 164 226 258 44 28 48 72 93 94 87 93 133 121 92 97 142 146 148 144 142 145 144 152 140 139 139 138 143 145 146 142 144 146 149 144 141 131 131 134 129 129 125 119 111 101 95 91 85 92 106 105 97 88 97 103 111 110 111 62 324 334 23 0 351 351 348 7 354 334 341 347 9 18 6 18 11 2 350 354 348 341 339 337
190 224 162 199 196 187 180 139 125 129 82 57 40 93 117 114 94 100 95 109 115 122 135 149 140 155 157 149 154 156 157 155 156 153 154 151 145 141 134 137 138 135 140 141 140 137 130 133 124 114 104 100 99 94 84 78 55 81 113 108 117 92 15 25 14 31 5 2 7 352 350 2 0 351 350 11 27 357 349 336 352 340 355 345 336 332 331
250 63 39 57 56 45 332 352 82 145 152 123 104 99 102 103 96 82 54 59 122 124 147 134 133 144 178 167 161 155 153 153 163 165 158 157 151 144 147 152 150 154 149 144 145 139 136 138 132 119 111 111 105 99 85 66 59 87 110 104 113 104 62 66 46 29 342 0 355 359 339 355 349 342 331 327 330 313 298 263 307 330 326 317 309 304 317
221 216 206 142 131 224 256 239 211 125 112 117 115 105 101 107 114 115 97 51 37 81 106 141 148 153 162 161 155 165 169 171 162 156 154 150 147 145 137 132 140 139 146 146 145 139 137 139 134 130 122 116 101 92 86 72 81 107 125 146 141 124 94 85 76 9 354 351 341 353 352 355 351 350 348 341 297 248 265 315 335 335 335 323 321 323 319
225 342 174 180 152 118 241 58 353 137 130 113 114 131 141 120 137 145 119 109 62 83 46 79 144 154 159 168 153 153 169 177 173 165 158 155 160 158 154 145 149 150 145 141 135 137 143 144 136 132 125 120 113 95 84 75 89 139 175 155 131 116 110 130 140 159 163 20 338 28 7 11 0 348 351 359 349 323 341 360 354 344 341 343 343 352 352
70 354 346 2 122 147 128 80 45 56 57 116 110 100 100 132 145 140 130 150 145 155 156 39 106 155 154 159 161 167 156 155 154 163 162 156 153 151 157 162 156 151 153 156 158 152 147 144 142 133 124 127 122 113 107 75 64 99 71 138 133 135 132 176 75 39 337 47 27 43 20 20 7 0 359 8 19 18 52 6 345 352 13 25 16 0 349
153 197 88 81 96 102 105 107 85 53 28 90 104 103 115 117 107 113 115 96 112 147 148 181 231 120 153 165 165 170 170 167 165 157 152 147 149 159 165 161 171 169 165 159 151 145 142 143 138 136 124 134 131 138 131 124 113 115 103 111 123 121 125 85 59 34 24 30 26 48 43 24 7 11 7 354 357 27 2 2 8 33 40 19 1 353 346
118 123 97 82 78 76 148 122 61 45 46 77 97 86 50 80 100 86 82 105 90 94 140 148 167 225 140 164 168 143 136 159 156 146 151 163 158 162 181 185 172 155 154 152 148 140 140 145 142 137 128 142 145 148 145 143 132 130 116 115 125 120 106 125 90 327 51 37 60 36 38 30 8 21 352 349 335 331 338 4 78 28 12 357 349 346 342
104 130 102 65 52 35 30 82 139 29 52 63 98 105 101 90 81 95 85 65 70 56 74 93 137 126 85 124 127 139 154 141 136 168 175 175 185 191 175 147 159 156 149 141 139 143 147 146 145 144 134 150 151 150 144 148 140 134 132 129 122 131 146 171 182 186 101 57 63 39 45 23 37 5 338 325 341 345 349 341 337 339 340 341 342 342 339
117 76 99 132 155 152 158 87 101 95 65 64 83 89 88 86 78 66 59 58 38 44 47 53 121 130 135 138 131 116 116 158 182 184 182 196 181 144 150 149 140 145 144 144 147 147 147 152 149 146 156 160 158 157 158 151 145 141 139 144 151 159 166 159 153 116 78 71 37 90 88 22 357 331 304 311 325 325 321 321 323 322 322 331 331 330 336
130 106 64 100 125 124 113 110 100 92 85 62 73 98 103 82 56 80 261 235 195 126 252 273 328 182 157 179 157 167 182 187 188 195 194 162 143 144 140 141 138 136 142 145 145 148 154 158 157 154 164 161 159 158 153 148 143 147 155 158 167 155 136 116 104 84 58 178 184 255 293 0 285 278 287 295 298 293 310 322 319 315 319 323 328 328 338
151 136 112 111 120 127 112 123 162 167 165 155 133 126 131 136 165 228 234 239 190 215 234 186 182 227 173 170 200 188 193 201 199 171 150 154 149 141 143 137 121 105 117 159 174 169 169 169 166 163 160 155 153 151 149 151 152 150 160 172 153 149 116 121 137 196 205 225 234 205 259 247 253 250 252 267 266 299 318 321 325 332 330 327 329 325 327
91 91 107 113 115 125 145 187 184 193 182 172 166 140 123 124 226 260 248 218 192 229 224 194 202 195 208 211 213 201 158 137 146 149 143 143 147 155 158 163 166 184 190 187 174 172 173 171 164 161 145 139 149 152 157 157 161 160 171 167 167 168 170 179 182 198 206 233 284 107 293 259 244 227 250 253 293 307 318 330 335 326 316 317 317 318 317
96 78 76 60 83 109 210 216 198 230 205 170 148 208 206 191 224 235 243 228 224 221 209 186 197 212 220 209 167 140 125 124 131 137 143 148 164 175 179 191 214 207 168 167 173 171 166 161 166 148 136 142 152 161 159 166 170 174 181 166 159 179 169 176 173 193 187 186 239 259 238 220 253 250 217 279 275 291 336 339 318 310 307 311 313 310 312
119 90 344 291 313 305 275 254 196 239 223 206 216 225 224 223 233 244 238 228 241 222 200 217 221 223 194 146 137 143 138 120 120 144 166 182 187 184 183 191 203 172 152 158 158 163 169 169 157 131 141 149 156 159 162 165 160 157 175 157 167 166 155 167 172 197 167 183 218 228 230 217 212 220 240 246 240 353 330 297 289 287 296 297 294 299 305
182 206 207 193 185 214 227 240 214 230 242 234 235 232 234 233 230 236 245 243 234 236 221 225 216 166 147 164 168 154 138 138 173 203 204 197 186 179 179 179 152 127 121 131 140 155 161 132 115 135 150 158 156 159 160 163 163 165 153 140 152 161 165 183 185 164 187 229 225 229 209 205 228 235 235 234 241 257 265 275 277 286 288 288 288 290 298
193 219 214 212 205 216 211 210 202 206 216 227 242 239 234 237 233 236 236 235 234 236 231 187 155 160 165 164 166 176 183 200 211 208 200 186 184 177 166 151 138 131 138 151 157 157 130 127 134 136 142 152 156 157 155 162 168 157 161 149 161 161 171 192 149 166 200 218 218 184 241 229 234 243 231 241 239 243 260 263 271 284 285 290 290 292 297
195 225 249 250 232 224 223 222 220 215 211 217 222 226 229 229 230 238 240 234 237 234 176 162 157 149 164 174 187 196 205 217 220 195 178 182 173 155 159 165 169 165 156 169 188 136 135 137 144 148 145 148 151 160 156 160 164 156 168 161 174 179 193 175 187 216 218 204 226 232 202 229 240 224 233 234 241 244 241 256 267 271 276 278 283 293 292
195 204 227 235 239 232 240 244 237 234 235 239 245 241 242 239 231 236 241 255 251 213 178 151 149 175 200 206 205 207 213 210 205 193 177 157 154 160 171 173 176 175 167 199 193 149 155 154 162 159 154 156 157 160 167 163 163 169 174 174 177 182 182 185 201 200 224 229 198 210 224 224 229 240 240 227 238 241 243 256 264 271 272 276 282 286 293
226 203 233 256 291 299 286 308 5 11 350 327 303 309 324 314 298 276 260 254 250 215 177 179 197 211 201 167 185 206 209 195 185 165 151 156 160 158 179 181 189 164 198 204 132 141 159 160 162 159 160 156 157 161 169 167 171 173 172 176 190 191 187 189 198 209 197 225 220 210 213 216 230 243 252 249 241 239 254 256 264 268 270 275 277 280 283
324 23 28 13 15 7 340 340 23 33 42 345 315 322 351 354 334 326 293 269 263 168 169 209 181 157 175 183 211 214 208 193 168 153 156 159 165 173 197 202 208 212 321 118 153 155 154 156 160 158 164 153 148 152 160 167 171 166 177 182 167 172 187 203 196 213 210 207 211 227 227 234 232 233 247 244 240 246 257 265 267 272 277 277 281 282 284
18 32 19 10 6 356 354 338 352 25 35 63 333 295 327 342 310 307 291 288 283 173 193 161 168 201 212 210 214 218 205 175 163 155 159 155 148 167 172 233 210 208 162 144 145 154 153 153 153 159 153 148 145 153 159 168 170 171 183 167 170 184 198 207 211 210 221 222 222 226 222 226 231 234 233 234 249 254 256 264 272 274 275 277 277 282 286
25 8 353 11 337 332 328 315 309 305 298 291 278 269 295 278 283 280 262 263 249 181 201 193 200 222 221 214 215 201 159 164 165 169 154 134 155 189 193 212 169 150 162 152 151 146 153 156 162 157 154 151 153 161 160 170 166 173 181 179 181 186 197 203 209 211 215 223 221 220 222 223 235 241 241 250 249 249 256 263 267 268 267 275 283 284 282
333 350 338 332 325 319 316 317 323 319 314 349 345 347 330 327 304 271 290 313 246 198 215 225 227 234 236 190 163 146 156 165 161 170 177 181 175 170 186 215 139 153 150 134 135 139 147 152 163 161 152 150 156 167 165 162 168 178 181 184 183 188 196 209 213 218 221 218 222 227 227 228 223 236 242 239 247 256 258 263 268 270 273 272 278 279 282
318 322 302 294 294 309 304 300 299 297 306 318 331 337 335 334 328 317 309 309 277 243 233 242 251 260 160 153 153 164 172 164 165 172 177 205 43 4 296 115 136 153 148 128 142 136 149 151 145 143 148 146 155 165 165 161 169 176 181 184 190 194 206 209 216 220 218 224 230 231 227 227 229 232 237 243 244 249 256 260 264 269 273 275 279 281 280
311 314 305 306 300 307 320 310 294 311 309 310 354 349 348 345 342 337 318 304 293 267 229 231 209 202 185 173 165 178 173 170 166 174 163 208 241 221 182 140 137 146 148 145 147 148 152 150 150 165 164 161 164 166 160 159 179 181 185 186 195 200 203 217 222 215 220 224 222 225 225 228 229 228 226 236 248 253 253 252 254 260 270 273 274 275 277
322 308 315 313 312 338 343 338 326 296 282 293 343 3 3 3 343 341 337 296 267 255 231 211 200 195 185 186 192 190 164 158 166 158 166 191 210 216 139 131 137 143 147 141 141 145 145 145 155 160 168 169 171 171 166 169 183 186 184 189 194 203 213 215 217 222 222 224 228 227 224 228 227 230 231 236 236 241 245 249 257 260 267 274 276 279 278
333 322 318 336 336 325 305 322 288 327 2 334 328 346 30 17 357 357 10 5 37 347 175 172 165 177 169 151 112 97 99 112 130 124 126 190 186 136 127 138 141 123 134 136 129 133 136 141 153 157 167 173 177 177 174 175 188 189 194 195 203 206 216 219 222 225 225 225 228 226 228 230 232 233 231 231 236 240 247 250 260 264 257 266 270 271 271
325 340 336 317 299 316 324 326 309 11 324 337 334 330 30 27 6 11 15 36 64 43 46 55 68 54 85 119 138 142 138 128 94 108 110 51 87 121 132 123 116 126 128 129 139 134 138 143 155 164 170 176 180 175 172 183 195 199 199 206 208 217 219 223 226 226 228 228 228 229 231 229 230 232 236 242 244 246 251 259 266 266 266 267 269 270 274
358 325 308 307 303 306 341 3 356 336 334 306 306 49 67 52 33 24 27 42 49 49 49 42 50 43 45 50 40 47 84 152 162 207 139 119 104 113 122 126 124 123 117 103 101 116 134 149 160 169 176 178 177 171 180 196 193 201 204 213 216 221 224 230 230 229 228 231 229 232 237 239 239 236 236 236 242 240 239 245 257 266 265 262 265 268 270
351 239 278 39 335 327 351 319 322 316 308 306 64 52 78 77 63 49 39 56 68 61 60 59 61 52 52 46 54 55 34 355 55 142 118 122 140 124 103 108 116 117 116 122 131 140 155 158 163 167 172 181 179 188 197 203 206 208 212 219 222 225 226 228 232 227 228 230 230 229 233 234 234 228 236 239 240 240 244 248 252 254 263 264 268 267 269
249 156 306 239 197 257 278 288 313 296 322 53 55 62 114 109 43 268 125 43 63 90 90 67 82 63 56 53 55 45 30 53 65 88 100 94 93 95 108 114 111 116 117 125 134 136 155 167 176 179 184 181 172 187 201 208 209 214 221 223 227 230 230 231 236 233 229 233 233 234 235 235 236 235 235 234 237 240 245 251 256 258 258 262 266 270 271
6 23 330 13 70 63 47 74 281 321 9 59 95 121 169 235 150 66 87 142 114 103 107 98 83 71 66 73 66 57 66 69 79 86 93 97 84 81 85 101 105 118 124 129 140 153 154 164 169 179 178 184 177 201 212 215 220 226 225 229 229 233 235 237 232 236 236 233 233 236 237 238 236 238 238 240 248 256 256 260 260 261 259 259 261 265 268
7 41 79 55 72 28 28 355 345 359 353 28 202 214 206 143 101 108 83 139 147 159 159 142 128 120 112 96 86 81 75 85 93 88 95 102 111 117 109 111 120 135 144 158 167 171 149 148 163 179 190 196 202 216 221 225 225 229 231 232 232 232 234 233 232 235 236 233 232 239 238 237 232 238 246 244 246 251 257 255 257 259 258 261 263 266 271